Weather History for Grosse Ile, MI

Change the Weather History Date:

Friday, March 30, 2012

  Actual Average (KDTW) Record (KDTW)
Temperature  
Mean Temperature 38 °F 43 °F  
Max Temperature 42 °F 52 °F 81 °F (1986)
Min Temperature 33 °F 34 °F 10 °F (1923)
Degree Days  
Heating Degree Days 28 22  
Month to date heating degree days 840  
Since 1 July heating degree days 5393  
Cooling Degree Days 0 0  
Month to date cooling degree days 0  
Year to date cooling degree days 0  
Moisture  
Dew Point 32 °F    
Average Humidity 77    
Maximum Humidity 93    
Minimum Humidity 70    
Precipitation  
Precipitation 0.35 in 0.08 in 1.76 in (1922)
Month to date precipitation 2.19  
Year to date precipitation 6.17  
Snow  
Snow 0.00 in 0.20 in 7.10 in (1881)
Month to date snowfall 6.8  
Since 1 July snowfall 40.7  
Snow Depth -    
Sea Level Pressure  
Sea Level Pressure 29.97 in    
Wind  
Wind Speed 9 mph (East)    
Max Wind Speed 22 mph    
Max Gust Speed 33 mph    
Visibility 9 miles    
Events Rain    
T = Trace of Precipitation, MM = Missing Value Source: NWS Daily Summary

Daily Weather History Graph

Daily Weather History Graph

Search for Another Location

Airport:

Trip Planner

Search our weather history database for the weather conditions in past years. The results will help you decide how hot, cold, wet, or windy it might be!

Date:

Astronomy

Mar. 30, 2012 Rise Set
Actual Time 7:17 AM EDT 7:56 PM EDT
Civil Twilight 6:49 AM EDT 8:24 PM EDT
Nautical Twilight 6:16 AM EDT 8:58 PM EDT
Astronomical Twilight 5:42 AM EDT 9:32 PM EDT
Moon 12:17 PM EDT (3/30) 2:37 AM EDT (3/30)
Length of Visible Light 13h 35m
Length of Day
12h 38m
Waxing Crescent, 49% of the Moon is Illuminated
Mar 30
Waxing Crescent
Mar 30
First Quarter
Apr 6
Full
Apr 13
Last Quarter
Apr 21
New

Hourly Weather History & Observations

Time (EDT) Temp. Windchill Dew Point Humidity Pressure Visibility Wind Dir Wind Speed Gust Speed Precip Events Conditions
12:14 AM 37.4 °F 30.8 °F 28.4 °F 70% 30.12 in 10.0 mi ENE 9.2 mph - N/A   Overcast
12:33 AM 35.6 °F 28.0 °F 28.4 °F 75% 30.11 in 10.0 mi ENE 10.4 mph - N/A   Scattered Clouds
12:54 AM 35.6 °F 29.2 °F 28.4 °F 75% 30.11 in 10.0 mi ENE 8.1 mph - N/A   Clear
1:14 AM 35.6 °F 28.0 °F 28.4 °F 75% 30.09 in 10.0 mi ENE 10.4 mph - N/A   Clear
1:34 AM 35.6 °F 28.6 °F 28.4 °F 75% 30.09 in 10.0 mi East 9.2 mph - N/A   Clear
1:53 AM 35.6 °F 28.6 °F 28.4 °F 75% 30.09 in 10.0 mi ENE 9.2 mph - N/A   Clear
2:14 AM 35.6 °F 28.0 °F 28.4 °F 75% 30.09 in 10.0 mi ENE 10.4 mph - N/A   Mostly Cloudy
2:34 AM 35.6 °F 28.6 °F 28.4 °F 75% 30.08 in 10.0 mi ENE 9.2 mph - N/A   Overcast
2:54 AM 35.6 °F 28.0 °F 28.4 °F 75% 30.08 in 10.0 mi ENE 10.4 mph - N/A   Overcast
3:14 AM 35.6 °F 29.9 °F 28.4 °F 75% 30.08 in 10.0 mi East 6.9 mph - N/A   Overcast
3:33 AM 35.6 °F 28.6 °F 26.6 °F 70% 30.07 in 10.0 mi East 9.2 mph - N/A   Mostly Cloudy
3:54 AM 33.8 °F 28.6 °F 26.6 °F 75% 30.07 in 10.0 mi East 5.8 mph - N/A   Scattered Clouds
4:14 AM 33.8 °F 27.7 °F 26.6 °F 75% 30.06 in 10.0 mi East 6.9 mph - N/A   Clear
4:33 AM 33.8 °F 27.0 °F 26.6 °F 75% 30.06 in 10.0 mi ESE 8.1 mph - N/A   Mostly Cloudy
4:54 AM 35.6 °F 30.7 °F 28.4 °F 75% 30.04 in 10.0 mi ESE 5.8 mph - N/A   Overcast
5:14 AM 35.6 °F 29.2 °F 28.4 °F 75% 30.05 in 10.0 mi East 8.1 mph - N/A   Overcast
5:34 AM 35.6 °F 30.7 °F 28.4 °F 75% 30.05 in 10.0 mi East 5.8 mph - N/A   Overcast
5:54 AM 35.6 °F 29.9 °F 28.4 °F 75% 30.04 in 10.0 mi East 6.9 mph - N/A   Overcast
6:13 AM 35.6 °F 31.7 °F 28.4 °F 75% 30.03 in 10.0 mi East 4.6 mph - N/A   Overcast
6:34 AM 37.4 °F 32.8 °F 30.2 °F 75% 30.04 in 10.0 mi ESE 5.8 mph - N/A   Overcast
6:54 AM 37.4 °F 32.1 °F 30.2 °F 75% 30.03 in 10.0 mi ESE 6.9 mph - N/A   Overcast
7:14 AM 37.4 °F 32.1 °F 30.2 °F 75% 30.03 in 10.0 mi ENE 6.9 mph - N/A   Overcast
7:34 AM 37.4 °F 32.1 °F 30.2 °F 75% 30.02 in 10.0 mi East 6.9 mph - N/A   Overcast
7:53 AM 37.4 °F 32.8 °F 30.2 °F 75% 30.01 in 10.0 mi East 5.8 mph - N/A   Overcast
8:14 AM 39.2 °F 34.2 °F 32.0 °F 75% 30.02 in 10.0 mi ESE 6.9 mph - N/A   Overcast
8:34 AM 39.2 °F 33.6 °F 32.0 °F 75% 30.02 in 10.0 mi ESE 8.1 mph - N/A   Overcast
8:54 AM 41.0 °F 33.9 °F 33.8 °F 76% 30.01 in 10.0 mi SE 12.7 mph 16.1 mph N/A   Overcast
9:14 AM 41.0 °F 35.2 °F 33.8 °F 76% 29.99 in 10.0 mi ESE 9.2 mph 17.3 mph N/A   Overcast
9:33 AM 41.0 °F 35.2 °F 33.8 °F 76% 29.97 in 10.0 mi ESE 9.2 mph - N/A   Overcast
9:54 AM 41.0 °F 34.3 °F 33.8 °F 76% 29.95 in 10.0 mi ESE 11.5 mph - N/A   Overcast
10:14 AM 41.0 °F 33.1 °F 33.8 °F 76% 29.94 in 10.0 mi ESE 15.0 mph 18.4 mph N/A   Overcast
10:34 AM 42.8 °F 36.6 °F 33.8 °F 70% 29.93 in 10.0 mi ESE 11.5 mph - N/A   Mostly Cloudy
10:53 AM 42.8 °F 38.6 °F 33.8 °F 70% 29.94 in 10.0 mi SE 6.9 mph 18.4 mph N/A   Mostly Cloudy
11:14 AM 42.8 °F 36.6 °F 33.8 °F 70% 29.93 in 10.0 mi ESE 11.5 mph 17.3 mph N/A   Overcast
11:34 AM 42.8 °F 36.6 °F 33.8 °F 70% 29.92 in 10.0 mi ESE 11.5 mph 20.7 mph N/A   Overcast
11:54 AM 42.8 °F 36.2 °F 33.8 °F 70% 29.90 in 10.0 mi ESE 12.7 mph 19.6 mph N/A   Overcast
12:34 PM 42.8 °F 37.0 °F 33.8 °F 70% 29.93 in 10.0 mi ENE 10.4 mph - N/A Rain Light Rain
12:54 PM 41.0 °F 35.2 °F 35.6 °F 81% 29.94 in 5.0 mi ENE 9.2 mph - 0.01 in Rain Heavy Rain
1:14 PM 41.0 °F 33.5 °F 35.6 °F 81% 29.92 in 10.0 mi ENE 13.8 mph - N/A Rain Light Rain
1:34 PM 39.2 °F 30.8 °F 35.6 °F 87% 29.89 in 10.0 mi ENE 15.0 mph 20.7 mph 0.03 in Rain Light Rain
1:53 PM 39.2 °F 31.2 °F 35.6 °F 87% 29.87 in 10.0 mi ENE 13.8 mph 23.0 mph 0.03 in Rain Light Rain
2:14 PM 37.4 °F 26.6 °F 35.6 °F 93% 29.74 in 2.5 mi ESE 21.9 mph 32.2 mph 0.06 in Rain Rain
2:34 PM 39.2 °F 29.0 °F 35.6 °F 87% 29.70 in 10.0 mi ESE 21.9 mph 33.4 mph 0.07 in   Overcast
2:54 PM 39.2 °F 33.6 °F 33.8 °F 81% 29.80 in 10.0 mi ENE 8.1 mph 25.3 mph 0.07 in   Overcast
3:14 PM 39.2 °F 33.6 °F 35.6 °F 87% 29.76 in 4.0 mi East 8.1 mph - N/A Rain Rain
3:34 PM 39.2 °F 35.9 °F 35.6 °F 87% 29.75 in 7.0 mi East 4.6 mph - 0.01 in Rain Light Rain
3:54 PM 41.0 °F 35.8 °F 35.6 °F 81% 29.80 in 2.5 mi ESE 8.1 mph 31.1 mph 0.08 in Rain Heavy Rain
4:14 PM 39.2 °F 33.0 °F 35.6 °F 87% 29.75 in 5.0 mi East 9.2 mph - 0.04 in Rain Rain
4:34 PM 41.0 °F 35.8 °F 37.4 °F 87% 29.81 in 2.5 mi NW 8.1 mph - 0.11 in Rain Light Rain
4:54 PM 39.2 °F 33.6 °F 37.4 °F 93% 29.80 in 2.0 mi NNW 8.1 mph - 0.16 in Rain Rain
5:14 PM 39.2 °F 34.2 °F 35.6 °F 87% 29.80 in 2.5 mi NNE 6.9 mph - N/A   Light Drizzle
5:34 PM 39.2 °F 33.0 °F 37.4 °F 93% 29.79 in 3.0 mi NNE 9.2 mph - N/A Rain Light Rain
5:53 PM 39.2 °F 32.5 °F 37.4 °F 93% 29.77 in 5.0 mi NE 10.4 mph - N/A Rain Light Rain
6:14 PM 39.2 °F 31.6 °F 37.4 °F 93% 29.79 in 5.0 mi NNE 12.7 mph 18.4 mph 0.01 in Rain Light Rain
6:33 PM 39.2 °F 31.2 °F 37.4 °F 93% 29.78 in 5.0 mi NNE 13.8 mph 19.6 mph 0.02 in Rain Light Rain
6:54 PM 39.2 °F 30.8 °F 35.6 °F 87% 29.79 in 5.0 mi NNE 15.0 mph 20.7 mph 0.07 in Rain Rain
7:13 PM 39.2 °F 30.5 °F 37.4 °F 93% 29.79 in 7.0 mi NE 16.1 mph 23.0 mph 0.01 in Rain Light Rain
7:34 PM 39.2 °F 30.2 °F 37.4 °F 93% 29.79 in 7.0 mi NNE 17.3 mph 21.9 mph 0.01 in   Overcast
7:54 PM 39.2 °F 31.6 °F 37.4 °F 93% 29.79 in 5.0 mi NNE 12.7 mph 19.6 mph 0.01 in   Overcast
8:14 PM 39.2 °F 30.8 °F 35.6 °F 87% 29.79 in 10.0 mi NNE 15.0 mph 20.7 mph N/A   Overcast
8:34 PM 39.2 °F 32.0 °F 35.6 °F 87% 29.81 in 10.0 mi NE 11.5 mph - N/A   Overcast
8:54 PM 39.2 °F 31.6 °F 35.6 °F 87% 29.80 in 10.0 mi NNE 12.7 mph - N/A   Overcast
9:13 PM 39.2 °F 32.5 °F 35.6 °F 87% 29.81 in 10.0 mi NNE 10.4 mph - N/A   Overcast
9:34 PM 39.2 °F 33.6 °F 35.6 °F 87% 29.82 in 10.0 mi NNE 8.1 mph - N/A   Overcast
9:54 PM 39.2 °F 31.2 °F 35.6 °F 87% 29.82 in 10.0 mi NNE 13.8 mph - N/A   Overcast
10:14 PM 39.2 °F 31.2 °F 35.6 °F 87% 29.84 in 10.0 mi NNE 13.8 mph 18.4 mph N/A   Overcast
10:34 PM 39.2 °F 31.2 °F 35.6 °F 87% 29.85 in 7.0 mi NNE 13.8 mph - N/A   Overcast
10:53 PM 39.2 °F 31.6 °F 35.6 °F 87% 29.85 in 7.0 mi NE 12.7 mph - N/A   Overcast
11:14 PM 39.2 °F 32.0 °F 35.6 °F 87% 29.86 in 7.0 mi NE 11.5 mph 17.3 mph N/A   Overcast
11:34 PM 39.2 °F 30.8 °F 35.6 °F 87% 29.86 in 7.0 mi NE 15.0 mph - N/A   Overcast
11:54 PM 37.4 °F 29.8 °F 35.6 °F 93% 29.86 in 7.0 mi NNE 11.5 mph - N/A   Overcast